Location: Casilda
(33.0440°S, 61.1680°W)
Time: 09:02:55
(UTC-03:00)

ISS - Pass Details

Date: 26 September 2023
Orbit: 413 x 421 km, 51.6° (Epoch: 26 September)

Event Time Altitude Azimuth Distance (km) Brightness Sun altitude
Exits shadow 04:55:26 10° 183° (S) 1,524 -0.8 -24.2°
Drops below altitude 10° 04:55:29 10° 183° (S) 1,532 -0.7 -24.2°
Sets 04:58:40 0° 151° (SSE) 2,404 0.8 -23.6°
